Simultaneous Nadir Overpasses (SNOs) Predictions

Prediction of SNOs between GOES-14 and NOAA-20 Satellite Orbit:

Table of predicted SNOs for the next 14.0 days since TLE Epoch: 10/15/2023
Index Date Time (GOES-14) GOES-14 Lat,Lon NOAA-20 Lat,Lon Distance(km) Time Diff (sec)
1 10/16/2023 20:23:53 -0.22,-108.55 0.67,-104.43 468.78 80
2 10/18/2023 08:42:59 0.19,-108.62 0.42,-109.71 123.91 80
3 10/19/2023 08:26:52 0.20,-108.61 -0.54,-105.16 393.27 80
4 10/20/2023 20:46:06 -0.17,-108.54 -0.61,-110.46 219.36 80
5 10/21/2023 20:29:59 -0.18,-108.53 0.41,-105.92 297.64 80
6 10/23/2023 08:49:05 0.15,-108.60 0.73,-111.19 295.47 80
7 10/24/2023 08:32:58 0.16,-108.59 -0.29,-106.65 221.67 80
8 10/25/2023 20:52:12 -0.13,-108.52 -0.90,-111.94 390.67 80
9 10/26/2023 20:36:05 -0.14,-108.51 0.13,-107.41 126.80 80
10 10/28/2023 08:55:09 0.12,-108.58 1.05,-112.66 465.73 80
11 10/29/2023 08:39:03 0.13,-108.58 0.02,-108.13 51.70 80
